Regional Weather Roundup
Issued by NWS

Home | Current Version | Previous Version | Text Only | Print | Product List | Glossary Off
Versions: 1 2 3 4 5 6 7 8 9 10 11 12 13 14 15 16 17 18 19 20 21 22 23 24 25 26 27 28 29 30 31 32 33 34 35 36 37 38 39 40 41 42 43 44 45 46 47 48 49 50

000
ASUS43 KLSX 150759
RWRMO

WEATHER SUMMARY FOR MISSOURI
NATIONAL WEATHER SERVICE SPRINGFIELD MO
300 AM CDT MON SEP 15 2014

NOTE: "FAIR" INDICATES FEW OR NO CLOUDS BELOW 12,000 FEET WITH NO
       SIGNIFICANT WEATHER AND/OR OBSTRUCTIONS TO VISIBILITY.
       CURRENT SKY AND/OR WEATHER CONDITIONS ARE NOT AVAILABLE FOR
       CHILLICOTHE AND FARMINGTON.

MOZ001>031-035>038-043-044-053-054-150900-
...NORTHERN AND WESTERN MISSOURI...

CITY           SKY/WX    TMP DP  RH WIND       PRES   REMARKS
KANSAS CTY INT CLOUDY    65  58  78 SE9       30.06F
KANSAS C DTWN  CLOUDY    65  57  75 SE6       30.06F
LEE`S SUMMIT   CLOUDY    61  57  87 CALM      30.09S
ST JOSEPH      CLOUDY    64  58  80 SE7       30.05F
KIRKSVILLE     CLOUDY    59  54  83 E6        30.12F

$$
MOZ066>068-077>081-088>096-101>105-150900-
...SOUTHWEST MISSOURI...

CITY           SKY/WX    TMP DP  RH WIND       PRES   REMARKS
SPRINGFIELD    MOCLDY    65  56  72 S13       30.12F
JOPLIN         CLOUDY    66  60  81 S12       30.11F

$$
MOZ032>034-039>042-045>050-055>058-069>072-150900-
...CENTRAL MISSOURI...

CITY           SKY/WX    TMP DP  RH WIND       PRES   REMARKS
COLUMBIA       PTCLDY    58  52  80 SE6       30.13F
JEFFERSON CITY PTCLDY    57  52  83 SE5       30.13S
ROLLA          PTCLDY    59  50  72 S10       30.12F
SEDALIA        PTCLDY    57  52  83 SE5       30.11F
OSAGE BEACH    MOCLDY    61  52  72 S6        30.12R

$$
MOZ051-052-059>065-150900-
...EAST CENTRAL MISSOURI...

CITY           SKY/WX    TMP DP  RH WIND       PRES   REMARKS
ST LOUIS INTL  MOCLDY    61  49  64 SE5       30.16F
SPIRIT OF STL  CLOUDY    56  53  90 CALM      30.14F
ST CHARLES     MOCLDY    56  53  90 SE3       30.15F

$$
MOZ072>076-082>087-097>100-106>115-150900-
...SOUTH CENTRAL AND SOUTHEAST MISSOURI...

CITY           SKY/WX    TMP DP  RH WIND       PRES   REMARKS
CAPE GIRARDEAU PTCLDY    52  51  97 SE3       30.17F
FARMINGTON     PTCLDY    54  48  82 CALM      30.18F
POPLAR BLUFF   CLOUDY    58  54  86 CALM      30.17S
WEST PLAINS    MOCLDY    61  50  67 S5        30.18F

$$



USA.gov is the U.S. government's official web portal to all federal, state and local government web resources and services.